FW7413 Weather Reports


time (UTC)temp
C
wind
direction
speed
KPH
gust
KPH
rain 1hr
cm
rain 24hr
cm
rain mn
cm
humidity
%
barometer
mb
20260507032751 11 140 0.0 0.0 0.00 0.00 0.00 58 1019.5
20260507032247 11 140 0.0 0.0 0.00 0.00 0.00 58 1019.3
20260507031744 11 140 0.0 0.0 0.00 0.00 0.00 57 1019.2
20260507031241 11 140 0.0 0.0 0.00 0.00 0.00 57 1019.2
20260507030737 11 140 0.0 0.0 0.00 0.00 0.00 57 1019.0
20260507030235 11 139 0.0 0.0 0.00 0.00 0.00 56 1019.1
20260507025732 11 138 0.0 0.0 0.00 0.00 0.00 55 1018.8
20260507025229 12 134 0.0 0.0 0.00 0.00 0.00 55 1018.8
20260507024727 12 133 0.0 0.0 0.00 0.00 0.00 54 1018.8
20260507024224 12 128 0.0 0.0 0.00 0.00 0.00 53 1018.5
20260507023720 12 112 0.0 1.6 0.00 0.00 0.00 53 1018.6
20260507023217 12 125 0.0 0.0 0.00 0.00 0.00 52 1018.6
20260507022714 13 96 0.0 0.0 0.00 0.00 0.00 52 1018.7
20260507022210 13 104 0.0 0.0 0.00 0.00 0.00 51 1018.4
20260507021706 13 130 0.0 1.6 0.00 0.00 0.00 51 1018.4
20260507021201 13 128 1.6 1.6 0.00 0.00 0.00 50 1018.4
20260507020701 13 103 1.6 1.6 0.00 0.00 0.00 50 1018.3
20260507020156 13 110 0.0 0.0 0.00 0.00 0.00 49 1018.4
20260507015654 13 122 0.0 0.0 0.00 0.00 0.00 49 1018.1
20260507015151 14 50 1.6 1.6 0.00 0.00 0.00 48 1018.3
20260507014648 14 96 0.0 1.6 0.00 0.00 0.00 48 1018.0
20260507014144 15 76 4.8 4.8 0.00 0.00 0.00 47 1018.0
20260507013641 15 80 0.0 1.6 0.00 0.00 0.00 47 1017.9
20260507013138 15 107 0.0 1.6 0.00 0.00 0.00 46 1018.0
20260507012636 15 87 1.6 3.2 0.00 0.00 0.00 46 1017.6
20260507012130 15 58 3.2 4.8 0.00 0.00 0.00 45 1017.8
20260507011629 15 81 1.6 1.6 0.00 0.00 0.00 45 1017.4
20260507011125 15 34 4.8 8.0 0.00 0.00 0.00 44 1017.5
20260507010620 16 40 3.2 3.2 0.00 0.00 0.00 44 1017.6
20260507010116 16 8 8.0 9.7 0.00 0.00 0.00 44 1017.4
20260507005614 16 88 0.0 1.6 0.00 0.00 0.00 44 1017.4
20260507005110 16 90 3.2 3.2 0.00 0.00 0.00 43 1017.7
20260507004607 16 83 3.2 4.8 0.00 0.00 0.00 44 1017.6
20260507004104 16 98 1.6 1.6 0.00 0.00 0.00 44 1017.5
20260507003600 16 31 6.4 9.7 0.00 0.00 0.00 44 1017.4
20260507003055 16 115 3.2 4.8 0.00 0.00 0.00 44 1017.3
20260507002552 17 44 6.4 9.7 0.00 0.00 0.00 43 1017.5
20260507002048 17 107 3.2 3.2 0.00 0.00 0.00 43 1017.5
20260507001545 17 320 6.4 11.3 0.00 0.00 0.00 43 1017.4
20260507001042 17 331 6.4 9.7 0.00 0.00 0.00 43 1017.4
20260507000538 17 88 8.0 9.7 0.00 0.00 0.00 42 1017.3
20260507000034 18 66 4.8 4.8 0.00 0.00 0.00 41 1017.0
20260506235532 18 120 3.2 3.2 0.00 0.00 0.00 41 1017.3
20260506235027 17 63 4.8 9.7 0.00 0.00 0.00 41 1016.9
20260506234525 17 79 6.4 9.7 0.00 0.00 0.00 41 1016.9
20260506234022 18 38 8.0 9.7 0.00 0.00 0.00 41 1016.8
20260506233518 18 17 8.0 9.7 0.00 0.00 0.00 41 1016.9
20260506233015 18 65 4.8 8.0 0.00 0.00 0.00 40 1016.8
20260506232511 18 19 6.4 9.7 0.00 0.00 0.00 41 1016.7
20260506232007 17 55 6.4 8.0 0.00 0.00 0.00 41 1016.7
20260506231504 18 72 1.6 1.6 0.00 0.00 0.00 40 1016.7
20260506230956 18 45 6.4 8.0 0.00 0.00 0.00 41 1016.6
20260506230452 18 49 3.2 4.8 0.00 0.00 0.00 40 1016.5
20260506225949 18 89 4.8 8.0 0.00 0.00 0.00 41 1016.6
20260506225446 18 62 4.8 4.8 0.00 0.00 0.00 40 1016.5
20260506224943 18 260 9.7 12.9 0.00 0.00 0.00 41 1016.5
20260506224440 18 104 6.4 8.0 0.00 0.00 0.00 40 1016.3
20260506223936 18 51 8.0 9.7 0.00 0.00 0.00 40 1016.6
20260506223432 18 127 4.8 8.0 0.00 0.00 0.00 41 1016.2
20260506222930 18 100 8.0 9.7 0.00 0.00 0.00 40 1016.3
20260506222426 18 51 6.4 9.7 0.00 0.00 0.00 42 1016.1
20260506221923 18 104 1.6 3.2 0.00 0.00 0.00 42 1016.2
20260506221420 18 285 4.8 4.8 0.00 0.00 0.00 42 1016.0
20260506220918 18 65 3.2 3.2 0.00 0.00 0.00 40 1015.9
20260506220413 18 40 9.7 11.3 0.00 0.00 0.00 40 1015.9
20260506215909 18 128 3.2 4.8 0.00 0.00 0.00 41 1016.1
20260506215406 18 56 3.2 4.8 0.00 0.00 0.00 41 1016.1
20260506214856 18 65 3.2 8.0 0.00 0.00 0.00 41 1016.0
20260506214353 18 77 3.2 4.8 0.00 0.00 0.00 42 1016.2
20260506213851 18 20 6.4 9.7 0.00 0.00 0.00 41 1016.2
20260506213348 18 130 3.2 3.2 0.00 0.00 0.00 41 1016.0
20260506212846 18 89 1.6 1.6 0.00 0.00 0.00 41 1016.1
20260506212341 17 63 4.8 4.8 0.00 0.00 0.00 44 1016.4
20260506211836 17 31 8.0 12.9 0.00 0.00 0.00 43 1016.4
20260506211332 17 100 3.2 4.8 0.00 0.00 0.00 44 1016.4
20260506210830 18 67 6.4 9.7 0.00 0.00 0.00 44 1016.4
20260506210327 18 72 4.8 4.8 0.00 0.00 0.00 44 1016.8
20260506205824 18 52 8.0 11.3 0.00 0.00 0.00 45 1016.7
20260506205320 17 302 8.0 12.9 0.00 0.00 0.00 46 1016.6
20260506204817 17 57 9.7 12.9 0.00 0.00 0.00 45 1016.6
20260506204314 17 54 1.6 3.2 0.00 0.00 0.00 45 1017.0
20260506203812 18 41 8.0 9.7 0.00 0.00 0.00 44 1016.7
20260506203309 18 46 6.4 9.7 0.00 0.00 0.00 44 1016.8
20260506202806 18 84 6.4 8.0 0.00 0.00 0.00 45 1016.8
20260506202305 17 88 4.8 4.8 0.00 0.00 0.00 47 1017.0
20260506201753 17 61 4.8 8.0 0.00 0.00 0.00 45 1016.9
20260506201250 17 59 1.6 3.2 0.00 0.00 0.00 47 1017.2
20260506200747 17 55 1.6 3.2 0.00 0.00 0.00 46 1017.0
20260506200243 17 56 4.8 8.0 0.00 0.00 0.00 47 1017.3
20260506195740 17 3 9.7 11.3 0.00 0.00 0.00 46 1017.0
20260506195236 17 20 8.0 11.3 0.00 0.00 0.00 47 1017.0
20260506194734 17 71 0.0 3.2 0.00 0.00 0.00 49 1017.3
20260506194230 16 55 11.3 12.9 0.00 0.00 0.00 48 1017.2
20260506193728 16 71 3.2 3.2 0.00 0.00 0.00 49 1017.5
20260506193224 16 85 0.0 1.6 0.00 0.00 0.00 49 1017.2
20260506192721 16 33 8.0 9.7 0.00 0.00 0.00 50 1017.4
20260506192218 16 73 3.2 4.8 0.00 0.00 0.00 51 1017.7
20260506191715 16 348 6.4 8.0 0.00 0.00 0.00 49 1017.7
20260506191210 16 44 3.2 4.8 0.00 0.00 0.00 50 1017.5
20260506190708 16 42 3.2 4.8 0.00 0.00 0.00 49 1017.7
20260506190204 15 65 3.2 3.2 0.00 0.00 0.00 49 1017.6
20260506185702 15 77 3.2 4.8 0.00 0.00 0.00 49 1017.6
20260506185158 16 20 6.4 8.0 0.00 0.00 0.00 48 1017.8
20260506184656 16 118 3.2 9.7 0.00 0.00 0.00 48 1017.8
20260506184153 16 151 1.6 3.2 0.00 0.00 0.00 50 1017.6
20260506183650 16 63 4.8 8.0 0.00 0.00 0.00 48 1017.7
20260506183145 16 90 1.6 4.8 0.00 0.00 0.00 48 1017.9
20260506182643 16 65 8.0 11.3 0.00 0.00 0.00 48 1017.9
20260506182140 16 93 3.2 4.8 0.00 0.00 0.00 49 1017.7
20260506181638 16 28 4.8 4.8 0.00 0.00 0.00 50 1018.1
20260506181134 16 70 3.2 3.2 0.00 0.00 0.00 49 1018.0
20260506180631 15 306 4.8 9.7 0.00 0.00 0.00 50 1018.2
20260506180128 15 133 1.6 4.8 0.00 0.00 0.00 50 1018.3
20260506175624 15 122 3.2 8.0 0.00 0.00 0.00 50 1018.3
20260506175120 16 25 8.0 11.3 0.00 0.00 0.00 48 1018.1
20260506174619 16 156 1.6 1.6 0.00 0.00 0.00 51 1018.0
20260506174115 16 138 1.6 3.2 0.00 0.00 0.00 49 1018.2
20260506173613 15 155 0.0 1.6 0.00 0.00 0.00 52 1018.3
20260506173109 15 59 3.2 3.2 0.00 0.00 0.00 49 1018.0
20260506172608 15 71 3.2 3.2 0.00 0.00 0.00 53 1018.5
20260506172103 15 98 6.4 8.0 0.00 0.00 0.00 51 1018.6
20260506171601 14 63 4.8 4.8 0.00 0.00 0.00 51 1018.3
20260506171058 15 80 4.8 8.0 0.00 0.00 0.00 50 1018.4
20260506170556 14 77 3.2 4.8 0.00 0.00 0.00 52 1018.3
20260506170053 15 33 4.8 9.7 0.00 0.00 0.00 50 1018.4
20260506165552 14 42 8.0 16.1 0.00 0.00 0.00 51 1018.4
20260506165047 15 4 11.3 17.7 0.00 0.00 0.00 50 1018.3
20260506164545 15 5 11.3 14.5 0.00 0.00 0.00 49 1018.3
20260506164042 15 144 8.0 12.9 0.00 0.00 0.00 47 1018.6
20260506163537 15 14 3.2 9.7 0.00 0.00 0.00 49 1018.4
20260506163033 15 128 3.2 4.8 0.00 0.00 0.00 50 1018.3
20260506162530 15 109 4.8 11.3 0.00 0.00 0.00 50 1018.6
20260506162027 15 102 8.0 14.5 0.00 0.00 0.00 50 1018.5
20260506161525 15 128 1.6 4.8 0.00 0.00 0.00 50 1018.7
20260506161021 15 157 6.4 11.3 0.00 0.00 0.00 50 1018.5
20260506160519 13 43 1.6 3.2 0.00 0.00 0.00 54 1018.3
20260506160017 13 18 6.4 11.3 0.00 0.00 0.00 53 1018.4
20260506155515 13 0 4.8 9.7 0.00 0.00 0.00 53 1018.4
20260506153652 12 38 8.0 11.3 0.00 0.00 0.00 56 1017.9
20260506153149 12 120 8.0 12.9 0.00 0.00 0.00 56 1018.1
20260506152646 12 117 12.9 16.1 0.00 0.00 0.00 55 1018.1
20260506152143 12 29 6.4 8.0 0.00 0.00 0.00 57 1018.1
20260506151642 12 10 8.0 9.7 0.00 0.00 0.00 57 1018.1
20260506151138 12 58 4.8 8.0 0.00 0.00 0.00 59 1018.3
20260506150635 11 87 6.4 8.0 0.00 0.00 0.00 61 1018.2
20260506150132 11 1 11.3 14.5 0.00 0.00 0.00 61 1018.2
20260506145629 11 51 8.0 12.9 0.00 0.00 0.00 61 1018.0
20260506145126 11 109 3.2 3.2 0.00 0.00 0.00 64 1018.2
20260506144623 11 16 12.9 20.9 0.00 0.00 0.00 63 1018.2
20260506144120 11 53 1.6 3.2 0.00 0.00 0.00 65 1018.2
20260506143618 10 21 11.3 14.5 0.00 0.00 0.00 66 1017.7
20260506143115 10 65 4.8 8.0 0.00 0.00 0.00 67 1017.6
20260506142614 10 27 4.8 4.8 0.00 0.00 0.00 68 1017.8
20260506142112 10 34 3.2 8.0 0.00 0.00 0.00 67 1017.6
20260506141608 10 51 3.2 3.2 0.00 0.00 0.00 68 1017.8
20260506141107 10 69 1.6 1.6 0.00 0.00 0.00 69 1017.7
20260506140604 10 13 8.0 9.7 0.00 0.00 0.00 69 1017.8
20260506135558 10 68 4.8 8.0 0.00 0.00 0.00 70 1017.8
20260506135054 10 102 4.8 4.8 0.00 0.00 0.00 70 1017.7
20260506134551 9 42 3.2 8.0 0.00 0.00 0.00 71 1017.6
20260506134046 9 69 4.8 9.7 0.00 0.00 0.00 71 1017.9
20260506133544 9 38 6.4 8.0 0.00 0.00 0.00 71 1018.1
20260506133041 9 57 6.4 8.0 0.00 0.00 0.00 72 1017.9
20260506132538 9 53 9.7 12.9 0.00 0.00 0.00 72 1017.9
20260506132035 9 2 12.9 17.7 0.00 0.00 0.00 72 1018.2
20260506131532 9 137 0.0 1.6 0.00 0.00 0.00 73 1018.4
20260506131029 9 18 4.8 12.9 0.00 0.00 0.00 73 1018.3
20260506130526 9 61 4.8 9.7 0.00 0.00 0.00 73 1018.2
20260506130023 9 61 4.8 9.7 0.00 0.00 0.00 73 1017.9
20260506125521 9 50 6.4 11.3 0.00 0.00 0.00 73 1017.6
20260506125019 9 72 4.8 8.0 0.00 0.00 0.00 72 1017.8
20260506124516 9 64 4.8 9.7 0.00 0.00 0.00 73 1017.9
20260506124014 9 37 3.2 3.2 0.00 0.00 0.00 73 1017.7
20260506123512 8 53 3.2 3.2 0.00 0.00 0.00 73 1017.7
20260506123010 8 102 3.2 4.8 0.00 0.00 0.00 73 1017.4
20260506122506 8 47 11.3 12.9 0.00 0.00 0.00 74 1017.0
20260506122004 8 28 4.8 8.0 0.00 0.00 0.00 74 1017.0
20260506121501 8 58 3.2 4.8 0.00 0.00 0.00 74 1017.0
20260506120958 8 123 3.2 4.8 0.00 0.00 0.00 74 1016.5
20260506120456 8 40 3.2 4.8 0.00 0.00 0.00 74 1016.7
20260506115953 8 58 3.2 4.8 0.00 0.00 0.00 74 1016.5
20260506115451 8 56 6.4 8.0 0.00 0.00 0.00 74 1016.2
20260506114949 8 80 1.6 4.8 0.00 0.00 0.00 74 1016.6
20260506114446 8 64 3.2 4.8 0.00 0.00 0.00 74 1016.6
20260506113944 8 53 1.6 3.2 0.00 0.00 0.00 74 1016.7
20260506113442 8 54 4.8 4.8 0.00 0.00 0.00 74 1016.4
20260506112938 8 83 3.2 4.8 0.00 0.00 0.00 74 1016.3
20260506112436 8 52 3.2 3.2 0.00 0.00 0.00 74 1016.7
20260506111933 8 33 4.8 4.8 0.00 0.00 0.00 74 1016.2
20260506111431 8 107 3.2 3.2 0.00 0.00 0.00 74 1016.0
20260506110928 8 31 8.0 12.9 0.00 0.00 0.00 74 1016.2
20260506110426 8 36 1.6 1.6 0.00 0.00 0.00 73 1016.2
20260506105922 8 40 4.8 4.8 0.00 0.00 0.00 73 1015.9
20260506105418 8 81 0.0 1.6 0.00 0.00 0.00 73 1016.2
20260506104910 8 56 1.6 3.2 0.00 0.00 0.00 72 1016.2
20260506104408 8 347 3.2 8.0 0.00 0.00 0.00 72 1016.3
20260506103906 8 54 3.2 4.8 0.00 0.00 0.00 72 1016.7
20260506103403 8 88 1.6 3.2 0.00 0.00 0.00 72 1016.9
20260506102900 8 84 3.2 4.8 0.00 0.00 0.00 72 1017.2
20260506102358 8 73 0.0 1.6 0.00 0.00 0.00 71 1017.0
20260506101854 9 15 4.8 4.8 0.00 0.00 0.00 71 1016.5
20260506101350 9 56 1.6 3.2 0.00 0.00 0.00 71 1016.5
20260506100848 9 59 4.8 8.0 0.00 0.00 0.00 71 1016.7
20260506100347 9 41 3.2 3.2 0.00 0.00 0.00 71 1016.6
20260506095844 9 111 1.6 1.6 0.00 0.00 0.00 70 1016.6
20260506095342 9 72 3.2 3.2 0.00 0.00 0.00 70 1016.3
20260506094838 9 36 1.6 3.2 0.00 0.00 0.00 71 1016.3
20260506094337 9 49 1.6 3.2 0.00 0.00 0.00 71 1016.3
20260506093835 9 112 3.2 3.2 0.00 0.00 0.00 70 1016.2
20260506093332 9 89 0.0 1.6 0.00 0.00 0.00 70 1015.8
20260506092829 9 87 0.0 1.6 0.00 0.00 0.00 70 1015.9
20260506092327 9 18 1.6 4.8 0.00 0.00 0.00 70 1015.5
20260506091824 9 350 3.2 8.0 0.00 0.00 0.00 69 1015.2
20260506091322 9 93 1.6 3.2 0.00 0.00 0.00 69 1015.3
20260506090819 9 98 6.4 11.3 0.00 0.00 0.00 69 1015.4
20260506090316 9 81 1.6 4.8 0.00 0.00 0.00 69 1015.5
20260506085813 9 91 8.0 9.7 0.00 0.00 0.00 69 1015.3
20260506085309 9 106 1.6 3.2 0.00 0.00 0.00 68 1015.2
20260506084806 9 84 1.6 3.2 0.00 0.00 0.00 67 1015.2
20260506084302 9 63 3.2 4.8 0.00 0.00 0.00 67 1015.3
20260506083759 9 25 4.8 8.0 0.00 0.00 0.00 67 1015.1
20260506083257 8 358 4.8 8.0 0.00 0.00 0.00 67 1014.9
20260506082754 8 53 3.2 4.8 0.00 0.00 0.00 67 1014.9
20260506082249 9 57 4.8 8.0 0.00 0.00 0.00 67 1014.9
20260506081747 9 29 4.8 4.8 0.00 0.00 0.00 66 1014.5
20260506081244 9 4 1.6 4.8 0.00 0.00 0.00 66 1014.5
20260506080743 9 327 4.8 9.7 0.00 0.00 0.00 67 1014.6
20260506080239 9 51 6.4 9.7 0.00 0.00 0.00 66 1014.6
20260506073223 9 32 4.8 9.7 0.00 0.00 0.00 66 1014.2
20260506072719 9 97 3.2 4.8 0.00 0.00 0.00 66 1014.3
20260506072217 9 52 8.0 14.5 0.00 0.00 0.00 66 1013.9
20260506071714 9 53 4.8 8.0 0.00 0.00 0.00 66 1013.7
20260506071212 9 73 1.6 3.2 0.00 0.00 0.00 66 1013.7
20260506070709 9 72 1.6 3.2 0.00 0.00 0.00 66 1013.6
20260506070206 9 75 1.6 1.6 0.00 0.00 0.00 66 1013.7
20260506062143 9 62 3.2 3.2 0.00 0.00 0.00 66 1014.2
20260506061639 9 65 0.0 0.0 0.00 0.00 0.00 65 1013.8
20260506061137 9 71 1.6 3.2 0.00 0.00 0.00 65 1014.2
20260506060635 9 79 1.6 3.2 0.00 0.00 0.00 64 1013.9
20260506060132 9 71 3.2 4.8 0.00 0.00 0.00 64 1013.8
20260506051103 10 138 1.6 1.6 0.00 0.00 0.00 63 1014.0
20260506050602 10 69 1.6 1.6 0.00 0.00 0.00 63 1013.8
20260506045052 10 32 6.4 11.3 0.00 0.00 0.00 63 1013.7
20260506044550 10 43 11.3 14.5 0.00 0.00 0.00 63 1013.7
20260506044046 10 27 8.0 11.3 0.00 0.00 0.00 63 1013.9
20260506043543 10 46 4.8 8.0 0.00 0.00 0.00 64 1013.9
20260506043042 10 103 4.8 9.7 0.00 0.00 0.00 64 1013.9
20260506042541 10 41 6.4 9.7 0.00 0.00 0.00 64 1014.0
20260506042038 10 67 3.2 4.8 0.00 0.00 0.00 64 1013.9
20260506041537 10 84 3.2 4.8 0.00 0.00 0.00 64 1014.0
20260506041033 10 70 1.6 3.2 0.00 0.00 0.00 65 1013.9
20260506040531 10 35 8.0 9.7 0.00 0.00 0.00 64 1013.7
20260506040026 9 33 11.3 17.7 0.00 0.00 0.00 65 1013.9
20260506035524 9 53 1.6 8.0 0.00 0.00 0.00 66 1013.6
20260506035020 9 114 6.4 9.7 0.00 0.00 0.00 66 1013.8
20260506034518 9 25 9.7 12.9 0.00 0.00 0.00 67 1013.8
20260506034015 9 22 8.0 12.9 0.00 0.00 0.00 68 1013.5
20260506033512 9 28 9.7 11.3 0.00 0.00 0.00 68 1013.7
20260506033009 9 78 4.8 4.8 0.00 0.00 0.00 70 1013.6